Weather Roundup
Issued by NWS Springfield, MO

Home | Current Version | Previous Version | Text Only | Print | Product List | Glossary On
Versions: 1 2 3 4 5 6 7 8 9 10 11 12 13 14 15 16 17 18 19 20 21 22 23 24 25 26 27 28 29 30 31 32 33 34 35 36 37 38 39 40 41 42 43 44 45 46 47 48 49 50
000
NZUS99 KSGF 080007
HRRSGF

HOURLY WEATHER
NATIONAL WEATHER SERVICE SPRINGFIELD MO
600 PM CST WED DEC 07 2016

......SGF CWA......

CITY           SKY/WX    TMP DP  RH WIND       PRES   REMARKS
SPRINGFIELD    FLURRIES  31  23  72 N15       30.29R WCI  20
6HR MIN TEMP:  31; 6HR MAX TEMP:  37; 6HR PCP: TRACE;

JOPLIN         FLURRIES  29  26  89 N12G18    30.36R WCI  19
6HR MIN TEMP:  29; 6HR MAX TEMP:  36; 6HR PCP: TRACE;

WEST PLAINS    CLOUDY    35  17  47 N8        30.25R WCI  29
6HR MIN TEMP:  35; 6HR MAX TEMP:  39;

ROLLA          FLURRIES  30  23  75 NW8       30.28R WCI  22
6HR MIN TEMP:  30; 6HR MAX TEMP:  35; 6HR PCP: TRACE;

OSAGE BEACH    FLURRIES  29  27  92 NW5       30.34R WCI  24
BRANSON        CLOUDY    32  23  69 CALM      30.26R

......SURROUNDING SGF CWA......

CITY           SKY/WX    TMP DP  RH WIND       PRES   REMARKS
CHANUTE        LGT SNOW  28  24  85 N8        30.38R FOG     WCI  20
PARSONS        CLOUDY    30  24  78 N9        30.39R WCI  22
COFFEYVILLE    CLOUDY    30  25  81 N12       30.39R WCI  20
EMPORIA        PTCLDY    23  19  85 NW7       30.40R WCI  15
GROVE OK       CLOUDY    36  23  60 N8        30.34R WCI  29
ROGERS AR      CLOUDY    34  16  47 N14       30.28R WCI  25
SILOAM SPRINGS CLOUDY    32  27  80 CALM      30.28R
HARRISON AR    CLOUDY    34  21  59 N6        30.25R WCI  29
NEAR YELLVILLE CLOUDY    37  16  41 N8        30.24R WCI  31

......KANSAS AND MISSOURI......

CITY           SKY/WX    TMP DP  RH WIND       PRES   REMARKS
KANSAS CTY INT PTCLDY    24  11  57 NW8       30.37R WCI  15
DOWNTOWN KC    MOCLDY    27  15  61 NW7       30.39R WCI  19
COLUMBIA       CLOUDY    29  22  75 W13       30.31R WCI  19
SEDALIA        MOCLDY    27  22  81 W8        30.35R WCI  19
ST JOSEPH      PTCLDY    23  11  60 NW9       30.39R WCI  13
ST LOUIS       CLOUDY    36  17  46 W8        30.27R WCI  30
SPIRIT OF STL  CLOUDY    34  21  59 W6        30.28R WCI  29
KIRKSVILLE     CLOUDY    25  13  60 W10       30.30R WCI  15
WICHITA        MOCLDY    27  20  75 N13       30.40R WCI  16
TOPEKA         PTCLDY    25  15  66 NW6       30.41R WCI  18
OLATHE         CLOUDY    24  15  68 NW10      30.37R WCI  14

......TENNESSEE......

CITY           SKY/WX    TMP DP  RH WIND       PRES   REMARKS
MEMPHIS        CLOUDY    44  32  62 NE7       30.21R
NASHVILLE      CLOUDY    43  28  55 N6        30.16S

......ARKANSAS.......

CITY           SKY/WX    TMP DP  RH WIND       PRES   REMARKS
FAYETTEVILLE   CLOUDY    30  28  92 CALM      30.27R
FT SMITH       CLOUDY    37  34  89 NE3       30.27R FOG
LITTLE ROCK    CLOUDY    41  33  73 NE7       30.24R

......OKLAHOMA.......

CITY           SKY/WX    TMP DP  RH WIND       PRES   REMARKS
TULSA          CLOUDY    37  21  52 N17G25    30.32R WCI  27
PONCA CITY     CLOUDY    32  21  64 NE12      30.37R WCI  23
MCALESTER      CLOUDY    37  34  89 NE8       30.26R FOG     WCI  31
OKLAHOMA CITY  CLOUDY    34  26  72 NE20G26   30.28R WCI  23

......IOWA............

CITY           SKY/WX    TMP DP  RH WIND       PRES   REMARKS
DES MOINES     PTCLDY    22   9  57 NW17      30.29R WCI   8
QUAD CITIES    PTCLDY    25  14  63 W21G26    30.22R WCI  11

......ILLINOIS........

CITY           SKY/WX    TMP DP  RH WIND       PRES   REMARKS
QUINCY         PTCLDY    28  15  58 W13       30.27R WCI  17
CHICAGO        MOCLDY    24  16  71 W17G24    30.11S WCI  11




USA.gov is the U.S. government's official web portal to all federal, state and local government web resources and services.